TimeAKDT,TemperatureF,Dew PointF,Humidity,Sea Level PressureIn,VisibilityMPH,Wind Direction,Wind SpeedMPH,Gust SpeedMPH,PrecipitationIn,Events,Conditions,WindDirDegrees,DateUTC
12:53 AM,37.9,33.1,83,29.21,10.0,Variable,6.9,-,N/A,,Mostly Cloudy,0,2012-11-03 08:53:00
1:53 AM,37.0,33.1,86,29.21,10.0,NE,9.2,-,0.01,,Mostly Cloudy,40,2012-11-03 09:53:00
2:53 AM,35.1,33.1,92,29.21,10.0,Calm,Calm,-,N/A,,Mostly Cloudy,0,2012-11-03 10:53:00
3:53 AM,37.0,32.0,82,29.21,10.0,Variable,4.6,-,N/A,,Scattered Clouds,0,2012-11-03 11:53:00
4:53 AM,37.0,30.0,76,29.21,10.0,Variable,5.8,-,N/A,,Clear,0,2012-11-03 12:53:00
5:53 AM,35.1,30.0,82,29.22,10.0,Variable,3.5,-,N/A,,Partly Cloudy,0,2012-11-03 13:53:00
6:53 AM,37.9,28.9,70,29.21,10.0,Calm,Calm,-,N/A,,Overcast,0,2012-11-03 14:53:00
7:53 AM,37.9,28.9,70,29.22,10.0,Variable,5.8,-,N/A,,Scattered Clouds,0,2012-11-03 15:53:00
8:53 AM,37.9,28.9,70,29.22,10.0,Variable,3.5,-,N/A,,Overcast,0,2012-11-03 16:53:00
9:53 AM,35.1,30.9,85,29.24,10.0,Calm,Calm,-,N/A,,Scattered Clouds,0,2012-11-03 17:53:00
10:53 AM,33.1,30.9,92,29.24,10.0,Calm,Calm,-,N/A,,Partly Cloudy,0,2012-11-03 18:53:00
11:53 AM,35.1,30.9,85,29.25,10.0,Calm,Calm,-,N/A,,Scattered Clouds,0,2012-11-03 19:53:00
12:53 PM,37.0,30.0,76,29.27,10.0,North,8.1,-,N/A,,Overcast,360,2012-11-03 20:53:00
1:53 PM,37.0,30.0,76,29.28,10.0,North,3.5,-,N/A,,Mostly Cloudy,350,2012-11-03 21:53:00
2:53 PM,37.9,30.0,73,29.29,10.0,Calm,Calm,-,N/A,,Overcast,0,2012-11-03 22:53:00
3:53 PM,37.0,28.0,70,29.29,10.0,NNE,3.5,-,N/A,,Scattered Clouds,20,2012-11-03 23:53:00
4:53 PM,35.1,28.9,78,29.28,10.0,Calm,Calm,-,N/A,,Clear,0,2012-11-04 00:53:00
5:53 PM,32.0,28.9,88,29.29,10.0,Calm,Calm,-,N/A,,Partly Cloudy,0,2012-11-04 01:53:00
6:53 PM,33.1,30.0,89,29.29,10.0,Calm,Calm,-,N/A,,Overcast,0,2012-11-04 02:53:00
7:53 PM,32.0,30.0,92,29.30,10.0,Calm,Calm,-,N/A,,Overcast,0,2012-11-04 03:53:00
8:53 PM,32.0,30.0,92,29.31,10.0,Calm,Calm,-,N/A,,Overcast,0,2012-11-04 04:53:00
9:53 PM,32.0,30.0,92,29.32,10.0,Calm,Calm,-,N/A,,Overcast,0,2012-11-04 05:53:00
10:53 PM,32.0,28.9,88,29.32,10.0,Calm,Calm,-,N/A,,Overcast,0,2012-11-04 06:53:00
11:53 PM,32.0,30.0,92,29.34,10.0,Calm,Calm,-,N/A,,Overcast,0,2012-11-04 07:53:00